Tracking 28125 objects as of 4-Oct-2023
HD Live streaming from Space Station
objects crossing your sky now

STARLINK-3124

Track STARLINK-3124 now!
10-day predictions
STARLINK-3124 is classified as:


NORAD ID: 49456
Int'l Code: 2021-104BA
Perigee: 545.8 km
Apogee: 548.0 km
Inclination: 53.2 °
Period: 95.4 minutes
Semi major axis: 6917 km
RCS: Unknown
Launch date: November 13, 2021
Source: United States (US)
Launch site: AIR FORCE EASTERN TEST RANGE (AFETR)
Your satellite tracking list
Your tracking list is empty




NASA's NSSDC Master Catalog

Two Line Element Set (TLE):
1 49456U 21104BA  23276.65893211  .00000487  00000-0  48685-4 0  9995
2 49456  53.2168 245.6899 0001588  95.6819 264.4354 15.08836173105789
Source of the keplerian elements: AFSPC